[ hide orbit diagram ]
For accurate long-term ephemerides, please instead use our Horizons system.This orbit viewer was implemented using two-body methods, and hence should not be used for determining accurate long-term trajectories (over several years or decades) or planetary encounter circumstances.
Orbital Elements at Epoch 2459000.5 (2020-May-31.0) TDB
Reference: JPL 41 (heliocentric ecliptic J2000)
Element | Value | Uncertainty (1-sigma) | Units |
e | .06785556253915549 | 2.8041e-08 | |
a | 2.358195055617429 | 6.9444e-09 | au |
q | 2.198178403541453 | 6.7321e-08 | au |
i | 6.108511620293378 | 3.7803e-06 | deg |
node | 198.1660258220924 | 2.9306e-05 | deg |
peri | 254.4755783342071 | 4.1492e-05 | deg |
M | 330.1529795421035 | 2.9941e-05 | deg |
tp | 2459110.164609384966 (2020-Sep-17.66460939) | 0.00011011 | TDB |
period | 1322.720284065839 3.62 | 5.8427e-06 1.6e-08 | d yr |
n | .2721663864512723 | 1.2022e-09 | deg/d |
Q | 2.518211707693404 | 7.4156e-09 | au |
|
| | Orbit Determination Parameters
Additional Information
|
[ show covariance matrix ]
Physical Parameter Table
Parameter |
Symbol |
Value |
Units |
Sigma |
Reference |
Notes |
absolute magnitude |
H |
13.5 |
|
n/a |
MPO502244 |
|
diameter |
diameter |
4.570 |
km |
0.201 |
urn:nasa:pds:neowise_diameters_albedos::2.0[mainbelt] (http://adsabs.harvard.edu/abs/2011ApJ...741...68M) |
|
geometric albedo |
albedo |
0.280 |
|
0.029 |
urn:nasa:pds:neowise_diameters_albedos::2.0[mainbelt] (http://adsabs.harvard.edu/abs/2011ApJ...741...68M) |
|
|
9885 Linux | Discovered 1994 Oct. 12 by Spacewatch at Kitt Peak. |
The Linux operating system was created by Linus Torvalds in 1991. The source code for Linux was placed on the Internet. A massive public collaboration resulted in a robust, feature-rich operating system that has been used by several minor-planet surveys for data collection and analysis. |
NOTE: some special characters may not display properly (any characters within {} are an attempt to place the proper accent above a character) |
Reference: 20001111/MPCPages.arc | Last Updated: 2013-03-29 |
|
|